User: anonymous   Login
Location: Stonelick Lake State Park
(39.2170°N, 84.0850°W)
Time: 19:54:18
(UTC-04:00)
Language:

Lacrosse 5 - Orbit

View from above orbital plane
View from above orbital plane
View from above satellite
View from above satellite

Ground track
Ground track

The orbit data is extracted from the following two-line orbital elements,

1 28646U 05016A   17228.10955659 0.00000000  00000-0  00000-0 0    01
2 28646  57.0130 262.7799 0002500 114.5816 245.4184 14.51913232    08
Epoch (UTC): 16 August 2017 02:37:45
Eccentricity: 0.0002500
inclination: 57.0130°
perigee height: 717 km
apogee height: 721 km
right ascension of ascending node: 262.7799°
argument of perigee: 114.5816°
revolutions per day: 14.51913232
mean anomaly at epoch: 245.4184°
orbit number at epoch: 0

The dashed part of the orbit path shows where the satellite is in the earth's shadow,  

DLR